This is the latest recevied weather packets stored in our database for station/object DH2PG-6. If no packets are shown the sender has not sent any weather packets the latest 10 day(s).
| Time | Temp. | Humidity | Pressure | Rain* | Wind** | Luminosity | Snow |
|---|---|---|---|---|---|---|---|
| 1778160191 | 12.78° C | 71% | 1012 hPa | 0 mm | - | - | - |
| 1778159891 | 12.78° C | 72% | 1012 hPa | 0 mm | - | - | - |
| 1778159590 | 12.78° C | 72% | 1011.9 hPa | 0 mm | - | - | - |
| 1778158990 | 12.22° C | 73% | 1011.7 hPa | 0 mm | - | - | - |
| 1778158690 | 12.22° C | 74% | 1011.7 hPa | 0 mm | - | - | - |
| 1778158389 | 11.67° C | 74% | 1011.8 hPa | 0 mm | - | - | - |
| 1778158089 | 11.67° C | 74% | 1011.9 hPa | 0 mm | - | - | - |
| 1778157789 | 11.67° C | 74% | 1011.7 hPa | 0 mm | - | - | - |
| 1778157488 | 11.11° C | 75% | 1011.8 hPa | 0 mm | - | - | - |
| 1778157188 | 11.11° C | 74% | 1011.8 hPa | 0 mm | - | - | - |
| 1778156588 | 11.11° C | 73% | 1011.8 hPa | 0 mm | - | - | - |
| 1778156287 | 11.67° C | 73% | 1011.7 hPa | 0 mm | - | - | - |
| 1778155987 | 12.22° C | 72% | 1011.8 hPa | 0 mm | - | - | - |
| 1778155086 | 12.78° C | 69% | 1011.6 hPa | 0 mm | - | - | - |
| 1778154786 | 12.78° C | 70% | 1011.6 hPa | 0 mm | - | - | - |
| 1778154486 | 13.33° C | 70% | 1011.5 hPa | 0 mm | - | - | - |
| 1778154185 | 13.33° C | 70% | 1011.5 hPa | 0 mm | - | - | - |
| 1778153585 | 12.78° C | 71% | 1011.4 hPa | 0 mm | - | - | - |
| 1778152984 | 12.78° C | 71% | 1011.4 hPa | 0 mm | - | - | - |
| 1778152684 | 12.78° C | 73% | 1011.4 hPa | 0 mm | - | - | - |
| 1778151783 | 12.22° C | 74% | 1011.6 hPa | 0 mm | - | - | - |
| 1778151483 | 12.22° C | 75% | 1011.6 hPa | 0 mm | - | - | - |
| 1778151183 | 11.67° C | 74% | 1011.4 hPa | 0 mm | - | - | - |
| 1778150882 | 12.22° C | 74% | 1011.5 hPa | 0 mm | - | - | - |
| 1778150582 | 12.22° C | 74% | 1011.4 hPa | 0 mm | - | - | - |
* Rain latest hour (hover to see other rain measurements)
** Current wind speed in m/s (hover to see current wind gust speed)